Estación meteorológica de Calldetenes (Osona, Plana de Vic)

Consulta los datos en tiempo real de la estación meteorológica de Calldetenes





Hora UTC 17:05
Temperatura 17.3 ºC
Suelo 15 cm 18.1 ºC
Humedad 66.9 %
Presión 1013.6 hPa
Pluja 0.0 mm
Velocidad viento 15.5 km/h
Dirección viento SSW
Radiación solar 139.4 W/m²

Webcam

Datos diarios 2026-05-08



Hora UTC (invierno +1h; verano +2h)
Temperatura (ºC) Humedad (%) Presión (hPa) Velocidad viento (km/h) Precipitación (mm) Radiación solar (W/m²)
Hora UTC Aire Suelo 15 cm Humedad Presión Vel. Dir. Vel. Max Dir. Intent. máx 5 min. Rad. Sol.
00:05 8.8 8.8 95.9 1014.2 5.5 ESE 5.5 ESE 0.0 0.1
00:10 8.8 8.9 96.0 1014.2 3.6 ESE 6.7 ESE 0.0 0.1
00:15 8.5 8.8 96.2 1014.1 4.8 ESE 6.7 ESE 0.0 0.1
00:20 8.8 8.8 97.3 1014.1 5.5 ESE 6.7 ESE 0.0 0.1
00:25 8.6 8.8 96.4 1014.0 3.5 ESE 5.3 ESE 0.0 0.1
00:30 8.5 8.7 96.4 1014.0 2.4 S 3.9 SE 0.0 0.1
00:35 8.6 8.6 97.2 1014.0 2.4 SW 3.5 SW 0.0 0.1
00:40 8.9 8.7 97.9 1014.0 2.8 SSW 5.6 SSW 0.0 0.1
00:45 9.3 8.9 98.3 1014.0 3.0 S 4.2 SSW 0.0 0.1
00:50 9.3 9.1 96.5 1014.0 2.7 SSE 4.2 S 0.0 0.1
00:55 9.0 9.1 96.1 1014.0 3.7 ESE 4.6 ESE 0.0 0.1
01:00 8.9 9.0 96.2 1014.0 4.2 ESE 6.0 ESE 0.0 0.1
01:05 8.9 8.9 96.8 1013.9 4.6 ESE 6.4 ESE 0.0 0.1
01:10 9.2 9.0 96.5 1013.9 4.7 ESE 6.7 ESE 0.0 0.1
01:15 8.9 9.1 94.8 1013.8 3.2 SE 4.9 ESE 0.0 0.1
01:20 8.7 8.9 95.4 1013.8 2.0 SSE 3.9 SE 0.0 0.1
01:25 8.7 8.7 95.9 1013.7 1.0 SSE 2.5 S 0.0 0.1
01:30 8.7 8.5 96.4 1013.7 1.9 S 3.2 S 0.0 0.1
01:35 8.7 8.5 96.5 1013.7 1.3 SSE 1.8 SSW 0.0 0.1
01:40 8.6 8.4 96.5 1013.7 2.0 ESE 3.2 ESE 0.0 0.1
01:45 8.5 8.4 96.6 1013.7 3.6 ESE 4.9 ESE 0.0 0.1
01:50 8.4 8.3 96.5 1013.7 4.6 ESE 6.0 ESE 0.0 0.1
01:55 8.3 8.3 96.5 1013.6 4.3 ESE 5.6 E 0.0 0.1
02:00 8.2 8.2 96.7 1013.6 3.9 E 6.0 ESE 0.0 0.1
02:05 8.2 8.2 96.6 1013.5 2.6 SE 4.2 SSE 0.0 0.1
02:10 8.2 8.2 96.5 1013.5 3.7 SE 5.3 ESE 0.0 0.1
02:15 8.0 8.1 96.3 1013.4 3.5 ESE 5.3 SE 0.0 0.1
02:20 7.9 7.9 96.8 1013.4 2.8 SE 3.9 SE 0.0 0.1
02:25 7.8 7.8 97.0 1013.4 1.4 SE 2.5 SE 0.0 0.1
02:30 7.8 7.7 97.5 1013.4 0.1 ESE 1.4 ESE 0.0 0.1
02:35 7.9 7.7 97.8 1013.5 2.3 ESE 3.9 ESE 0.0 0.1
02:40 8.1 7.7 98.1 1013.5 2.2 SE 3.5 SE 0.0 0.1
02:45 8.2 7.9 96.8 1013.5 1.7 ESE 3.5 SE 0.0 0.1
02:50 7.9 7.9 96.0 1013.5 2.1 SE 3.9 ESE 0.0 0.1
02:55 7.7 7.6 96.3 1013.5 2.9 E 4.2 E 0.0 0.1
03:00 7.3 7.3 96.0 1013.5 1.4 ENE 2.5 ENE 0.0 0.1
03:05 7.2 7.1 96.6 1013.4 0.2 N 1.8 N 0.0 0.1
03:10 7.1 7.0 96.6 1013.4 0.2 N 2.1 N 0.0 0.1
03:15 7.1 6.9 97.2 1013.3 1.4 ESE 3.5 ESE 0.0 0.1
03:20 6.8 6.7 96.6 1013.3 2.3 ESE 3.9 ESE 0.0 0.2
03:25 6.5 6.5 96.7 1013.3 3.7 ESE 4.9 ESE 0.0 0.1
03:30 6.4 6.3 97.2 1013.3 3.7 ESE 4.6 SE 0.0 0.1
03:35 6.0 6.1 96.6 1013.3 0.6 SE 3.9 SE 0.0 0.2
03:40 5.9 5.9 97.4 1013.3 0.8 ESE 4.6 ESE 0.0 0.1
03:45 6.1 5.7 98.2 1013.2 5.6 ESE 6.4 ESE 0.0 0.1
03:50 6.6 5.8 99.4 1013.2 5.2 ESE 6.4 ESE 0.0 0.1
03:55 6.2 6.0 96.9 1013.3 3.4 ESE 5.3 ESE 0.0 0.1
04:00 5.8 5.8 97.0 1013.3 5.9 ESE 7.4 ESE 0.0 0.1
04:05 5.6 5.7 97.4 1013.3 6.0 ESE 8.1 ESE 0.0 0.1
04:10 5.5 5.5 97.7 1013.3 6.3 ESE 8.1 ESE 0.0 0.1
04:15 5.9 5.4 99.3 1013.3 3.4 ESE 5.6 ESE 0.0 0.2
04:20 5.9 5.5 98.6 1013.3 1.6 ESE 4.6 ESE 0.0 0.2
04:25 5.6 5.5 97.8 1013.4 0.8 ESE 3.2 ESE 0.0 0.3
04:30 5.6 5.4 98.2 1013.4 0.0 NNE 0.0 ESE 0.0 0.6
04:35 5.6 5.3 98.8 1013.4 2.8 ESE 5.3 ESE 0.0 1.3
04:40 5.6 5.3 98.7 1013.4 2.6 SE 4.9 ESE 0.0 2.2
04:45 5.5 5.2 98.6 1013.5 3.0 SSE 4.9 SSE 0.0 3.4
04:50 5.4 5.1 98.6 1013.5 3.8 S 5.6 S 0.0 4.8
04:55 5.2 5.0 98.2 1013.7 2.7 S 4.9 S 0.0 6.4
05:00 5.4 4.9 99.1 1013.7 1.0 SSE 3.5 SSE 0.0 8.4
05:05 5.4 4.9 99.0 1013.7 0.3 SSW 1.8 SSW 0.0 11.1
05:10 5.5 4.9 99.3 1013.7 2.0 ESE 3.2 E 0.0 14.3
05:15 5.6 5.0 99.4 1013.7 3.9 ESE 5.3 ESE 0.0 16.5
05:20 6.2 5.4 99.8 1013.7 3.8 ESE 5.3 ESE 0.0 18.4
05:25 5.9 5.6 98.2 1013.8 2.7 SE 4.6 ESE 0.0 20.2
05:30 5.7 5.5 98.3 1013.8 2.0 ESE 3.9 ESE 0.0 22.0
05:35 5.8 5.6 98.8 1013.9 4.9 ESE 6.0 ESE 0.0 24.0
05:40 6.4 5.7 99.8 1013.9 1.8 ESE 4.9 ESE 0.0 25.4
05:45 6.4 5.9 99.3 1013.9 0.4 ESE 2.1 ESE 0.0 27.2
05:50 6.7 6.1 99.6 1013.9 0.0 ENE 1.1 ENE 0.0 29.2
05:55 7.0 6.4 99.8 1014.1 0.1 SE 1.4 SE 0.0 31.0
06:00 7.3 6.7 100.0 1014.1 0.4 ENE 1.8 ENE 0.0 32.4
06:05 7.6 7.0 100.0 1014.2 0.2 ENE 1.4 ENE 0.0 34.2
06:10 7.7 7.3 99.7 1014.2 0.1 SSW 1.8 SSW 0.0 36.5
06:15 7.9 7.5 99.5 1014.2 1.3 NNE 3.5 NNE 0.0 38.3
06:20 8.1 7.7 98.9 1014.2 1.9 NNE 3.9 NNE 0.0 41.0
06:25 8.3 7.9 97.8 1014.2 1.8 NE 4.6 ENE 0.0 200.6
06:30 8.6 8.0 97.2 1014.2 4.0 E 5.6 E 0.0 248.5
06:35 8.8 8.3 95.6 1014.4 3.2 ENE 5.3 ENE 0.0 263.1
06:40 8.9 8.4 93.7 1014.4 1.3 NE 4.9 NNE 0.0 277.5
06:45 9.0 8.5 92.2 1014.4 1.4 NE 3.5 ENE 0.0 265.8
06:50 9.2 8.6 91.8 1014.4 2.3 ENE 4.6 ENE 0.0 285.5
06:55 9.3 8.7 90.8 1014.5 1.8 E 5.3 ENE 0.0 303.6
07:00 9.5 8.8 90.7 1014.5 3.3 ENE 6.0 E 0.0 308.2
07:05 9.8 8.9 89.3 1014.5 2.9 NNE 6.4 NNE 0.0 335.3
07:10 10.0 9.1 88.3 1014.5 2.0 N 4.6 NNE 0.0 352.5
07:15 10.1 9.2 87.9 1014.5 2.3 WNW 4.9 NW 0.0 374.5
07:20 10.1 9.3 88.4 1014.5 1.5 NNW 4.2 WNW 0.0 387.6
07:25 10.2 9.4 87.5 1014.4 2.1 NW 4.6 NW 0.0 409.1
07:30 10.3 9.5 87.9 1014.4 2.8 NNE 4.9 NNW 0.0 410.3
07:35 10.6 9.6 85.9 1014.4 0.2 N 1.8 ESE 0.0 445.4
07:40 10.7 9.8 85.9 1014.4 2.2 NNW 3.9 NW 0.0 446.5
07:45 10.9 10.0 85.7 1014.4 2.4 NNW 5.6 NW 0.0 442.8
07:50 11.1 10.2 85.1 1014.4 1.5 W 5.3 WSW 0.0 436.5
07:55 11.3 10.4 83.8 1014.4 1.9 NNE 4.2 SW 0.0 435.2
08:00 11.6 10.7 84.5 1014.4 3.1 NNE 5.6 N 0.0 450.2
08:05 11.8 11.0 82.7 1014.4 2.4 NE 3.9 NNE 0.0 488.5
08:10 12.1 11.3 82.5 1014.4 2.0 NNE 4.9 N 0.0 504.1
08:15 12.5 11.7 81.8 1014.4 3.1 NE 6.0 NE 0.0 478.4
08:20 12.8 12.1 79.4 1014.4 3.1 NE 5.3 NE 0.0 499.7
08:25 13.0 12.4 78.5 1014.4 2.0 NE 4.9 NNE 0.0 536.8
08:30 13.1 12.7 77.0 1014.4 0.9 SSE 3.2 E 0.0 540.1
08:35 13.2 12.9 76.0 1014.4 0.9 SSW 3.2 SSE 0.0 548.3
08:40 13.7 13.2 73.8 1014.4 2.1 S 4.2 SSW 0.0 511.4
08:45 14.1 13.6 72.1 1014.5 2.3 NE 6.0 ENE 0.0 516.9
08:50 14.6 14.0 71.0 1014.5 3.5 N 6.4 NNE 0.0 528.0
08:55 14.7 14.4 69.1 1014.5 2.9 N 5.3 NNE 0.0 549.2
09:00 15.0 14.8 66.5 1014.5 1.9 WSW 6.4 W 0.0 551.0
09:05 15.5 15.3 65.0 1014.6 3.3 NW 5.6 NW 0.0 576.6
09:10 16.0 15.9 63.0 1014.6 2.9 N 6.0 N 0.0 503.9
09:15 16.4 16.6 59.1 1014.7 2.7 S 8.1 SSW 0.0 423.9
09:20 16.5 17.2 55.0 1014.7 4.3 SSW 8.8 SSW 0.0 344.1
09:25 16.5 17.5 56.5 1014.8 2.7 SSW 6.7 S 0.0 303.8
09:30 16.4 17.7 57.0 1014.8 4.6 SW 8.8 S 0.0 280.9
09:35 16.4 17.6 57.8 1014.8 4.2 SSW 8.5 S 0.0 275.1
09:40 16.4 17.6 57.8 1014.8 4.9 S 9.5 SW 0.0 306.0
09:45 16.3 17.6 59.7 1014.9 5.6 SSW 9.2 SSW 0.0 294.4
09:50 16.3 17.5 60.6 1014.9 6.6 S 9.9 S 0.0 282.0
09:55 16.3 17.5 61.1 1015.0 4.0 S 6.4 S 0.0 288.8
10:00 16.7 17.6 60.5 1015.0 2.7 SW 6.7 WSW 0.0 274.0
10:05 17.0 17.8 58.4 1015.0 6.4 WSW 10.9 WSW 0.0 274.1
10:10 17.1 17.8 56.2 1015.0 4.8 SW 12.7 SW 0.0 316.6
10:15 17.5 17.9 51.6 1014.9 6.3 SW 10.9 W 0.0 392.8
10:20 17.8 18.3 51.4 1014.9 9.1 SW 17.3 SSW 0.0 441.0
10:25 17.4 18.7 53.6 1014.9 11.5 SSW 17.6 SSW 0.0 437.0
10:30 17.5 18.9 53.6 1014.9 10.1 SW 17.3 SW 0.0 467.9
10:35 17.8 19.1 53.3 1014.8 9.0 SW 15.9 SSW 0.0 522.3
10:40 17.8 19.6 52.0 1014.8 12.7 SSW 18.4 SSW 0.0 482.5
10:45 17.7 19.7 52.3 1014.8 11.4 SW 18.4 SW 0.0 407.6
10:50 17.6 19.5 52.5 1014.8 9.8 SSW 14.1 SSW 0.0 505.2
10:55 17.7 19.6 52.0 1014.7 9.0 SSW 14.1 SW 0.0 508.0
11:00 17.8 19.8 50.9 1014.7 7.7 SW 10.9 SSW 0.0 461.6
11:05 18.0 19.9 52.7 1014.5 5.4 SW 9.9 WSW 0.0 586.8
11:10 18.5 20.5 51.3 1014.5 8.6 SW 12.7 SSW 0.0 561.6
11:15 18.4 20.9 50.4 1014.5 9.4 WSW 15.2 SW 0.0 564.4
11:20 18.4 21.1 50.4 1014.5 7.5 SSW 13.4 WSW 0.0 590.0
11:25 18.6 21.5 50.3 1014.4 8.0 SSW 14.5 SW 0.0 674.4
11:30 18.5 21.9 50.1 1014.4 7.4 SW 13.8 WSW 0.0 658.6
11:35 18.8 22.2 49.8 1014.3 5.7 WNW 9.5 WSW 0.0 525.1
11:40 18.8 22.2 48.6 1014.3 3.0 NW 9.9 W 0.0 423.1
11:45 19.1 21.8 48.7 1014.2 2.7 SSW 9.9 S 0.0 367.6
11:50 19.0 21.4 48.4 1014.2 7.5 SSE 9.9 S 0.0 348.2
11:55 18.5 21.0 50.1 1014.2 3.7 SE 8.1 S 0.0 405.9
12:00 18.7 20.9 50.3 1014.2 3.5 ESE 6.7 ESE 0.0 383.2
12:05 18.8 20.8 52.6 1014.2 3.1 E 6.0 ENE 0.0 328.4
12:10 18.7 20.5 49.4 1014.2 4.7 SE 9.2 SE 0.0 235.5
12:15 18.7 20.0 52.6 1014.2 7.0 S 12.0 SSE 0.0 193.8
12:20 18.5 19.6 57.7 1014.2 7.1 SSE 13.1 SSW 0.0 254.2
12:25 18.3 19.4 56.7 1014.2 8.9 S 15.2 SSW 0.0 259.4
12:30 18.3 19.3 57.2 1014.2 11.4 SSW 21.2 SSW 0.0 199.9
12:35 18.1 19.0 60.3 1014.2 10.9 SSW 19.8 SSW 0.0 165.3
12:40 18.1 18.7 61.0 1014.2 9.4 SSW 18.7 SW 0.0 136.9
12:45 17.8 18.4 62.2 1014.3 11.5 SSW 22.2 S 0.0 100.9
12:50 17.4 18.0 63.0 1014.3 15.1 SSW 25.8 S 0.0 79.9
12:55 17.1 17.6 64.4 1014.4 13.9 S 22.2 S 0.0 87.2
13:00 17.0 17.3 65.2 1014.4 12.0 S 23.3 S 0.0 117.3
13:05 17.1 17.2 65.1 1014.3 13.0 S 20.8 SSW 0.0 153.0
13:10 17.2 17.3 65.2 1014.3 12.1 S 20.1 SSW 0.0 165.8
13:15 17.4 17.5 64.4 1014.4 10.6 SSW 18.4 S 0.0 211.7
13:20 17.7 17.7 63.4 1014.4 8.5 SSW 15.9 S 0.0 211.8
13:25 17.8 18.0 63.6 1014.4 10.9 SSW 19.4 SW 0.0 131.6
13:30 17.6 17.9 63.2 1014.4 11.9 SSW 21.2 SW 0.0 88.7
13:35 17.4 17.7 63.4 1014.5 15.1 SSW 26.1 SSW 0.0 77.2
13:40 17.3 17.4 63.1 1014.5 12.2 SSW 19.4 SSW 0.0 80.9
13:45 17.3 17.2 62.6 1014.5 14.1 SSW 24.0 S 0.0 102.7
13:50 17.3 17.2 61.5 1014.5 14.9 S 22.2 SSW 0.0 134.9
13:55 17.4 17.3 61.6 1014.6 10.1 SSW 16.2 SSW 0.0 176.1
14:00 17.6 17.5 60.3 1014.6 11.6 SW 20.5 SW 0.0 186.0
14:05 17.6 17.7 60.3 1014.6 14.2 SW 24.7 SW 0.0 210.6
14:10 17.5 17.9 61.5 1014.6 16.0 SW 23.3 SSW 0.0 262.5
14:15 17.6 18.1 61.0 1014.5 13.9 SSW 22.6 SW 0.0 352.3
14:20 17.9 18.4 59.9 1014.5 12.4 SSW 17.6 SW 0.0 337.1
14:25 18.1 18.7 60.1 1014.4 10.4 SW 20.1 WSW 0.0 356.9
14:30 18.2 19.0 59.1 1014.4 12.3 SW 19.1 SSW 0.0 396.8
14:35 18.2 19.3 59.2 1014.2 7.7 SSW 13.4 S 0.0 370.8
14:40 18.5 19.5 58.6 1014.2 9.2 SSW 15.5 SSW 0.0 444.9
14:45 18.7 19.6 58.4 1013.9 8.0 SW 13.8 SSW 0.0 575.9
14:50 19.0 19.7 57.3 1013.9 6.8 SW 12.0 WSW 0.0 561.3
14:55 19.3 19.8 56.8 1013.7 5.2 WSW 8.8 W 0.0 653.9
15:00 19.8 19.7 54.4 1013.7 3.8 S 9.2 S 0.0 608.5
15:05 19.2 19.5 54.7 1013.5 3.5 SSE 8.8 S 0.0 281.0
15:10 18.9 19.0 56.3 1013.5 1.7 SSE 5.6 SSE 0.0 376.2
15:15 19.2 18.9 53.5 1013.4 5.5 S 9.9 SE 0.0 301.9
15:20 19.0 19.0 53.3 1013.4 2.9 SE 7.8 SSE 0.0 314.8
15:25 19.2 19.3 56.3 1013.5 1.4 ESE 4.6 SE 0.0 527.3
15:30 20.1 19.9 54.7 1013.5 8.7 W 14.1 W 0.0 790.7
15:35 21.1 20.5 50.5 1013.5 3.5 SW 9.2 WSW 0.0 543.3
15:40 21.2 20.6 50.5 1013.5 2.6 SW 8.1 WSW 0.0 105.4
15:45 20.1 20.2 53.1 1013.5 4.3 SW 8.8 SW 0.0 58.2
15:50 19.0 19.5 56.1 1013.5 9.1 SSW 17.3 SW 0.0 51.0
15:55 18.5 18.9 58.4 1013.6 7.6 S 14.8 SSE 0.0 55.6
16:00 18.3 18.5 59.7 1013.6 12.4 SSW 20.8 SSW 0.0 53.3
16:05 18.0 18.2 61.3 1013.7 14.6 S 22.6 SSW 0.0 56.5
16:10 17.9 17.9 62.7 1013.7 14.5 SSW 23.6 SSW 0.0 136.2
16:15 17.8 17.9 63.6 1013.7 12.4 SSW 20.8 SSW 0.0 133.7
16:20 17.8 17.9 63.8 1013.7 13.8 SSW 21.9 SSW 0.0 159.5
16:25 17.6 17.9 64.4 1013.7 16.4 S 26.1 S 0.0 159.2
16:30 17.6 17.9 65.3 1013.7 13.8 SSW 23.6 SSW 0.0 190.2
16:35 17.6 18.0 65.9 1013.7 12.4 SSW 19.8 S 0.0 238.7
16:40 18.0 18.2 64.9 1013.7 12.9 SSW 21.2 S 0.0 455.1
16:45 18.4 18.7 63.2 1013.6 12.7 SSW 18.4 S 0.0 343.4
16:50 18.1 19.0 63.8 1013.6 13.3 SSW 20.8 S 0.0 232.5
16:55 17.8 18.9 65.0 1013.5 15.2 SSW 22.6 S 0.0 155.6
17:00 17.5 18.5 66.2 1013.5 13.7 SSW 25.1 SSW 0.0 136.1
17:05 17.3 18.1 66.9 1013.6 15.5 SSW 25.4 SSW 0.0 139.4
Máxima 21.2 22.2 100.0 1015.0 16.4 S 26.1 S 0.0 790.7
Mínima 5.2 4.9 48.4 1013.2
Total 0.0